Location: T�chigga el Be�da
(16.4766°N, 9.3887°W)
Time: 09:56:31
(UTC+00:00)

Meteor 1-11 Rocket - Pass Details

Date: 27 February 2020
Orbit: 831 x 916 km, 81.2° (Epoch: 28 March)

Event Time Altitude Azimuth Distance (km) Brightness Sun altitude
Rises 20:41:03 0° 195° (SSW) 3,450 7.1 -28.8°
Reaches altitude 10° 20:43:33 10° 200° (SSW) 2,500 6.3 -29.4°
Maximum altitude 20:49:04 54° 276° (W) 1,029 4.3 -30.7°
Drops below altitude 10° 20:54:29 10° 354° (N) 2,455 6.2 -32.0°
Sets 20:56:56 0° 358° (N) 3,382 6.9 -32.6°
